Погода Чимбай

Погода Чимбай : погода сейчас, прогноз погоды и архив. Всё, что Вы хотите узнать о погоде Чимбай!

Хотите узнать прогноз погоды Чимбай? Тогда Вам сюда: Погода Чимбай

Поиск расширенной информации на нашем сайте:

Полезная информация: Классификация и виды складского немеханического оборудования.

Другие новости

Новости СМИ2

Главная страница сайта

Новости сайта

02.10.2013

Напоминаем, что на нашем новом сайте вы можете получить высокодетализированные прогнозы погоды по пунктам России, СНГ и мира (включающие важные для авиации метеовеличины, такие как направление и скорость ветра, видимость, явления погоды, количество и форма облачности, нижняя и верхняя граница облачности), а также ознакомиться с разнообразными материалами по авиационной метеорологии и подборкой полезных ссылок на эту тему.

Сайт Метеоцентр.Азия посвящён разработке технологий оптимизации авиаметеорологического обслуживания, включая проектирование и перспективное создание нескольких автоматизированных авиаметеорологических систем:
- система выпуска высокодетальных прогностических карт явлений погоды для нижнего воздушного пространства по России и ближнему зарубежью;
- система верификации прогнозов TAF (выпускаемых синоптиками официальных АМСГ РФ и ближнего зарубежья) и AUTOTAF (выпускаемых сайтом Метеоцентр.Азия) - выявление ошибок, онлайн-сопоставление с фактической погодой METAR, автоматическое внесение коррективов в прогнозы при резком отклонении фактической погоды от прогноза, подсчёт оправдываемости прогнозов по элементам и в целом;
- система обработки, анализа и отображения авиаметеорологической информации для применения провайдерами метеорологической информации.

Рекомендуем: Заказать производство новогодней продукции купить искусственные новогодние.

Погода Чимбай - сегодня

Время (UTC), дата Ветер
(°,м/с) 
Видим.   Явления Облачность Т
(°С)
Тd
(°С)
f(%) Тe
(°С)
Pmin
(гПа)
dP
(гПа)
Po
(мм)
O2
(г/м3)
Тmin Tmax R s Состояние
почвы
15 24.03.17 340 (С) н/о    10/10 600 м кучево-дожд. 
[Cb cap]
+5.2 +1.4 76 +4  1024.6  1.1  762  301    +7       
18 24.03.17 360 (С) н/о    10/10 1000 м 
[Sc]
+5 +1.5 78 +5  1026.4  1.8  764  302    +7       
21 24.03.17 360 (С) н/о    10/10 1000 м 
[Sc]
+4.4 +1.1 79 +4  1025.4  -1  763  302           
00 25.03.17 340 (С) н/о    10/10 1000 м 
[Sc]
+3.4 +0.2 80 +3  1025.4  763  304           
03 25.03.17 340 (С) 20000 м    10/10 1000 м 
[Sc]
+3 +0.1 81 +2  1025.5  0.1  763  304           
06 25.03.17 290 (З) 10 км  слаб. дождь  10/10 1000 м 
[Sc]
+3.7 +1.9 88 +2  1025.1  -0.4  763  303  +2.6         
09 25.03.17 360 (С) 10 км  слаб. дождь  10/10 300 м 
[Ns]
+4.2 +3 92 +3  1024  -1.1  762  302           
12 25.03.17 360 (С) 10 км  слаб. дождь  10/10 300 м 
[Ns]
+5.1 +3.7 91 +4  1023.5  -0.4  761  301           
18 25.03.17 110 (В) н/о    8/8 1000 м 
[Sc]
+3.5 +2 90 +4  1022.4  0.1  761  302    +5.5  0.6     
21 25.03.17 180 (Ю) н/о    6/6 1000 м 
[Sc]
+3.5 +1.7 88 +2  1022.4  761  302           
00 26.03.17 180 (Ю) н/о    ясно 
+1.8 +0.2 89 +1  1022.9  0.5  761  305           
06 26.03.17 140 (ЮВ) 20000 м    6/6 1000 м 
[Cu med, cong]
+8.8 +2.7 66 +9  1024.1  0.9  762  297  +1.2         
09 26.03.17 090 (В) 20000 м    8/8 1000 м 
[Cu med, cong]
+11.2 +3.2 58 +11  1024.3  0.2  762  295           
12 26.03.17 090 (В) 20000 м    5/5 1000 м 
[Cu med, cong]
+12.6 +4.3 57 +13  1022.6  -1.7  761  292           
15 26.03.17 090 (В) н/о    ясно 
+8.8 +1.3 59 +9  1022.1  -0.6  761  297    +13       
18 26.03.17 090 (В) н/о    ясно 
+5.8 -1.2 61 +6  1022.4  0.2  761  300    +13       
21 26.03.17 090 (В) н/о    ясно 
+5.5 -0.6 65 +6  1022.2  -0.2  761  300           
00 27.03.17 090 (В) н/о    ясно 
+2 -2.7 71 +3  1021  -1.2  760  304           
03 27.03.17 140 (ЮВ) 20000 м    ясно 
+1.8 -3.3 69 +1  1020.3  -0.7  759  304           
06 27.03.17 140 (ЮВ) 20000 м    3/0 средняя 
[Ac trans]
+11 +3 58 +11  1020.4  0.2  759  294  +1.3         
09 27.03.17 140 (ЮВ) 20000 м    8/8 1000 м 
[Sc]
+13.6 +4.3 53 +14  1019.3  -0.9  759  290           
12 27.03.17 140 (ЮВ) 20000 м    5/0 средняя 
[Ac trans]
+14.4 +3.6 48 +15  1018.1  -1.2  758  289           
15 27.03.17 140 (ЮВ) н/о    ясно 
+12 +2.7 53 +12  1018.1  758  292    +14.8       
18 27.03.17 110 (В) н/о    ясно 
+10.2 +1.7 56 +10  1016.9  -1.4  757  294    +14.8       
21 27.03.17 110 (В) н/о    ясно 
+8 +0.2 58 +8  1016.7  -0.2  756  296           
Время (UTC), дата Ветер
(°,м/с) 
Видим.   Явления Облачность Т
(°С)
Тd
(°С)
f(%) Тe
(°С)
Pmin
(гПа)
dP
(гПа)
Po
(мм)
O2
(г/м3)
Тmin Tmax R s Состояние
почвы

Для получения пояснительной информации подведите курсор к названию столбца.

ПОГОДА Чимбай - архив

Всё, что Вы хотите узнать о погоде Чимбай - удобно и подробно!

Выберите нужную дату (начиная с 1 января 2015* года) и нажмите кнопку "Найти".
Будут отображены архивные сводки погоды по пункту Чимбай, начиная с указанной даты.


Отображать данные в формате CSV (для использования в таблицах Excel)


Внимание! Наш архив погоды предназначен исключительно для личного некоммерческого использования в познавательных целях. Если Вам необходимы официальные справки о состоянии погоды (для производственных, юридических, коммерческих и т.п. целей), обращайтесь в органы Росгидромета.

*Примечание: данная дата относится к архиву по метеостанциям СССР (Россия, СНГ, Балтия).
Архив по метеостанциям Зарубежной Европы и Азии (кроме Китая) хранится 10 дней, по другим регионам земного шара (Китай, Африка, Америка, Австралия, Океания) - 1 день.

Чимбай - район местоположения метеостанции


Название, широта, долгота, высота метеостанции:
Чимбай 42.9°ш. 59.8°д. 66 м над ур. моря [Узбекистан]

Дополнительная информация

В oтличие oт бoльшинства пoгoдных сайтoв мы публикуем пoдрoбную метеoинфoрмацию в детальнoм прoфессиoнальнoм фoрмате.

Характеристики температуры и влажнoсти вoздуха измеряются на высoте 2 м в тени вдали oт зданий и деревьев.
Скoрoсть ветра измеряется на высoте 10 м (на урoвне рoста челoвека скoрoсть ветра ниже в 1.5-2 раза). Если метеoстанция нахoдится в гoрoде или в лесу, тo скoрoсть ветра занижена на 2-4 м/с пo сравнению с oткрытым местoм. Скoрoсть ветра над акватoриями крупных рек и oзёр, а также на вершинах хoлмoв на 2-5 м/с выше, чем в oбычных услoвиях.
Атмoсфернoе давление в разных тoчках местнoсти мoжет значительнo oтличаться oт давления на метеoстанции, в зависимoсти oт услoвий рельефа (при пoдъёме на 10 м давление пoнижается примернo на 1 мм рт.ст.).